TimeCST,TemperatureF,Dew PointF,Humidity,Sea Level PressureIn,VisibilityMPH,Wind Direction,Wind SpeedMPH,Gust SpeedMPH,PrecipitationIn,Events,Conditions,WindDirDegrees,DateUTC
12:15 AM,67.6,51.6,56,29.81,10.0,NNE,4.6,-,N/A,,Clear,20,2013-02-22 06:15:00
12:35 AM,67.5,51.8,57,29.80,10.0,NNE,3.5,-,N/A,,Clear,30,2013-02-22 06:35:00
12:55 AM,67.8,51.8,56,29.80,10.0,North,3.5,-,N/A,,Clear,350,2013-02-22 06:55:00
1:15 AM,66.9,51.8,58,29.82,10.0,Calm,Calm,-,N/A,,Clear,0,2013-02-22 07:15:00
1:35 AM,65.8,51.8,60,29.84,10.0,Calm,Calm,-,N/A,,Clear,0,2013-02-22 07:35:00
1:55 AM,64.9,51.8,62,29.84,10.0,WNW,3.5,-,N/A,,Clear,290,2013-02-22 07:55:00
2:15 AM,65.1,52.0,62,29.83,10.0,WNW,3.5,-,N/A,,Clear,300,2013-02-22 08:15:00
2:35 AM,65.5,52.0,62,29.82,10.0,NW,5.8,-,N/A,,Clear,320,2013-02-22 08:35:00
3:15 AM,65.3,51.4,61,29.80,10.0,North,3.5,-,N/A,,Clear,360,2013-02-22 09:15:00
3:35 AM,65.7,51.8,61,29.80,10.0,North,4.6,-,N/A,,Clear,350,2013-02-22 09:35:00
3:55 AM,65.5,51.8,61,29.80,10.0,North,5.8,-,N/A,,Clear,350,2013-02-22 09:55:00
4:15 AM,65.5,52.0,62,29.80,10.0,North,4.6,-,N/A,,Clear,360,2013-02-22 10:15:00
4:35 AM,65.5,51.8,61,29.80,10.0,North,4.6,-,N/A,,Clear,350,2013-02-22 10:35:00
4:55 AM,65.3,51.3,60,29.80,10.0,North,6.9,-,N/A,,Clear,360,2013-02-22 10:55:00
5:15 AM,65.3,51.3,60,29.80,10.0,North,8.1,-,N/A,,Clear,10,2013-02-22 11:15:00
5:35 AM,65.3,51.8,62,29.81,10.0,North,6.9,-,N/A,,Clear,360,2013-02-22 11:35:00
5:55 AM,65.5,52.5,63,29.82,10.0,NNE,5.8,-,N/A,,Clear,20,2013-02-22 11:55:00
6:15 AM,65.7,53.1,64,29.83,10.0,North,6.9,-,N/A,,Clear,10,2013-02-22 12:15:00
6:35 AM,66.2,53.6,64,29.83,10.0,NNE,6.9,-,N/A,,Clear,20,2013-02-22 12:35:00
6:55 AM,66.2,53.8,64,29.83,10.0,NNE,5.8,-,N/A,,Mostly Cloudy,20,2013-02-22 12:55:00
7:15 AM,66.7,54.1,64,29.84,10.0,NNE,8.1,-,N/A,,Overcast,20,2013-02-22 13:15:00
7:35 AM,67.1,54.5,64,29.85,10.0,NNE,8.1,-,N/A,,Overcast,20,2013-02-22 13:35:00
7:55 AM,67.5,54.7,64,29.86,10.0,North,9.2,-,N/A,,Overcast,10,2013-02-22 13:55:00
8:15 AM,68.2,54.5,62,29.87,10.0,NNE,10.4,-,N/A,,Overcast,20,2013-02-22 14:15:00
8:35 AM,69.8,53.8,57,29.88,10.0,NNE,11.5,-,N/A,,Overcast,30,2013-02-22 14:35:00
8:55 AM,69.8,52.7,54,29.88,10.0,NE,11.5,-,N/A,,Mostly Cloudy,40,2013-02-22 14:55:00
9:15 AM,70.3,50.4,49,29.90,10.0,NNE,10.4,19.6,N/A,,Mostly Cloudy,30,2013-02-22 15:15:00
9:35 AM,70.7,49.8,48,29.90,10.0,NE,16.1,21.9,N/A,,Mostly Cloudy,40,2013-02-22 15:35:00
9:55 AM,71.2,49.3,46,29.91,10.0,NE,13.8,-,N/A,,Mostly Cloudy,40,2013-02-22 15:55:00
10:15 AM,72.0,48.4,43,29.91,10.0,NE,11.5,-,N/A,,Mostly Cloudy,40,2013-02-22 16:15:00
10:35 AM,73.2,47.3,40,29.91,10.0,NE,12.7,18.4,N/A,,Overcast,50,2013-02-22 16:35:00
11:15 AM,76.3,41.0,28,29.91,10.0,ENE,16.1,27.6,N/A,,Mostly Cloudy,60,2013-02-22 17:15:00
11:35 AM,77.4,41.0,27,29.90,10.0,NE,15.0,25.3,N/A,,Overcast,50,2013-02-22 17:35:00
11:55 AM,77.2,39.9,26,29.90,10.0,ENE,17.3,26.5,N/A,,Mostly Cloudy,60,2013-02-22 17:55:00
12:15 PM,78.3,39.2,25,29.90,10.0,ENE,19.6,26.5,N/A,,Mostly Cloudy,70,2013-02-22 18:15:00
12:35 PM,77.4,38.8,25,29.88,10.0,NE,15.0,25.3,N/A,,Mostly Cloudy,50,2013-02-22 18:35:00
12:55 PM,78.8,41.0,26,29.88,10.0,NE,18.4,27.6,N/A,,Overcast,40,2013-02-22 18:55:00
1:15 PM,77.4,41.5,28,29.88,10.0,NE,16.1,23.0,N/A,,Overcast,40,2013-02-22 19:15:00
1:35 PM,77.0,41.0,28,29.87,10.0,NE,17.3,21.9,N/A,,Overcast,40,2013-02-22 19:35:00
1:55 PM,77.5,41.4,27,29.86,10.0,ENE,13.8,23.0,N/A,,Overcast,60,2013-02-22 19:55:00
2:15 PM,77.7,40.8,27,29.85,10.0,NE,15.0,19.6,N/A,,Overcast,50,2013-02-22 20:15:00
2:35 PM,77.0,41.4,28,29.85,10.0,NE,13.8,20.7,N/A,,Overcast,50,2013-02-22 20:35:00
3:15 PM,78.6,43.9,29,29.83,10.0,NE,13.8,23.0,N/A,,Overcast,50,2013-02-22 21:15:00
3:35 PM,78.1,45.5,32,29.83,10.0,ENE,16.1,21.9,N/A,,Mostly Cloudy,60,2013-02-22 21:35:00
3:55 PM,77.9,45.1,31,29.82,10.0,ENE,16.1,21.9,N/A,,Mostly Cloudy,60,2013-02-22 21:55:00
4:15 PM,78.6,45.1,31,29.81,10.0,ENE,19.6,24.2,N/A,,Scattered Clouds,60,2013-02-22 22:15:00
4:35 PM,77.4,45.5,32,29.82,10.0,ENE,17.3,24.2,N/A,,Mostly Cloudy,70,2013-02-22 22:35:00
4:55 PM,76.3,44.8,33,29.83,10.0,ENE,15.0,20.7,N/A,,Overcast,60,2013-02-22 22:55:00
5:15 PM,75.9,45.7,34,29.83,10.0,ENE,15.0,20.7,N/A,,Overcast,60,2013-02-22 23:15:00
5:35 PM,75.4,46.4,36,29.83,10.0,ENE,12.7,-,N/A,,Overcast,60,2013-02-22 23:35:00
5:55 PM,74.7,46.4,37,29.83,10.0,NE,11.5,19.6,N/A,,Overcast,50,2013-02-22 23:55:00
6:15 PM,74.1,46.4,37,29.83,10.0,ENE,10.4,-,N/A,,Overcast,60,2013-02-23 00:15:00
6:35 PM,73.4,48.0,41,29.83,10.0,ENE,16.1,19.6,N/A,,Mostly Cloudy,60,2013-02-23 00:35:00
6:55 PM,73.4,49.1,42,29.85,10.0,ENE,13.8,20.7,N/A,,Overcast,60,2013-02-23 00:55:00
7:15 PM,72.9,48.2,42,29.86,10.0,ENE,12.7,-,N/A,,Overcast,60,2013-02-23 01:15:00
7:35 PM,72.7,48.0,42,29.88,10.0,NE,11.5,-,N/A,,Overcast,40,2013-02-23 01:35:00
7:55 PM,72.1,48.2,43,29.88,10.0,NE,12.7,17.3,N/A,,Overcast,50,2013-02-23 01:55:00
8:15 PM,71.8,48.4,43,29.89,10.0,NE,10.4,-,N/A,,Overcast,50,2013-02-23 02:15:00
8:35 PM,71.6,49.1,45,29.89,10.0,NE,11.5,-,N/A,,Overcast,50,2013-02-23 02:35:00
8:55 PM,70.7,49.3,47,29.90,10.0,ENE,9.2,-,N/A,,Overcast,60,2013-02-23 02:55:00
9:15 PM,68.9,49.5,50,29.90,10.0,NE,6.9,-,N/A,,Scattered Clouds,50,2013-02-23 03:15:00
9:35 PM,67.8,49.5,52,29.91,10.0,NE,4.6,-,N/A,,Clear,40,2013-02-23 03:35:00
9:55 PM,67.5,49.6,53,29.92,10.0,NNE,6.9,-,N/A,,Clear,30,2013-02-23 03:55:00
10:15 PM,68.4,50.0,52,29.93,10.0,NE,6.9,-,N/A,,Mostly Cloudy,50,2013-02-23 04:15:00
10:35 PM,68.9,50.0,51,29.93,10.0,NE,6.9,-,N/A,,Overcast,40,2013-02-23 04:35:00
10:55 PM,68.4,49.5,51,29.93,10.0,NNE,9.2,-,N/A,,Overcast,30,2013-02-23 04:55:00
11:15 PM,68.0,49.1,51,29.92,10.0,NNE,15.0,-,N/A,,Overcast,30,2013-02-23 05:15:00
11:35 PM,67.5,49.1,52,29.94,10.0,NNE,6.9,-,N/A,,Overcast,30,2013-02-23 05:35:00
11:55 PM,67.5,49.1,52,29.94,10.0,NE,10.4,-,N/A,,Overcast,40,2013-02-23 05:55:00